Regional Weather Roundup
Issued by NWS

Home | Current Version | Previous Version | Graphics & Text | Print | Product List | Glossary On
Versions: 1 2 3 4 5 6 7 8 9 10 11 12 13 14 15 16 17 18 19 20 21 22 23 24 25 26 27 28 29 30 31 32 33 34 35 36 37 38 39 40 41 42 43 44 45 46 47 48 49 50
397
ASUS43 KLSX 261557
RWRMO

WEATHER SUMMARY FOR MISSOURI
NATIONAL WEATHER SERVICE SPRINGFIELD MO
1100 AM CDT FRI AUG 26 2016

NOTE: "FAIR" INDICATES FEW OR NO CLOUDS BELOW 12,000 FEET WITH NO
       SIGNIFICANT WEATHER AND/OR OBSTRUCTIONS TO VISIBILITY.
       CURRENT SKY AND/OR WEATHER CONDITIONS ARE NOT AVAILABLE FOR
       CHILLICOTHE AND FARMINGTON.

MOZ001>031-035>038-043-044-053-054-261700-
...NORTHERN AND WESTERN MISSOURI...

CITY           SKY/WX    TMP DP  RH WIND       PRES   REMARKS
KANSAS CTY INT CLOUDY    73  66  78 SE13      30.11F
LEE`S SUMMIT   MOSUNNY   74  68  81 E13       30.11F
ST JOSEPH      CLOUDY    70  67  90 E7        30.10F

$$
MOZ066>068-077>081-088>096-101>105-261700-
...SOUTHWEST MISSOURI...

CITY           SKY/WX    TMP DP  RH WIND       PRES   REMARKS
SPRINGFIELD    MOSUNNY   78  68  71 W3        30.13F
JOPLIN         CLOUDY    76  72  87 S5        30.11F
BRANSON        PTSUNNY   77  70  78 CALM      30.15F

$$
MOZ032>034-039>042-045>050-055>058-069>072-261700-
...CENTRAL MISSOURI...

CITY           SKY/WX    TMP DP  RH WIND       PRES   REMARKS
COLUMBIA       FOG       73  73 100 NE5       30.13S VSB 1
JEFFERSON CITY CLOUDY    81  71  71 CALM      30.11S
ROLLA          CLOUDY    78  72  81 SW8       30.12S
SEDALIA        CLOUDY    74  70  87 VRB3      30.14S

$$
MOZ051-052-059>065-261700-
...EAST CENTRAL MISSOURI...

CITY           SKY/WX    TMP DP  RH WIND       PRES   REMARKS
ST LOUIS INTL  CLOUDY    84  71  65 CALM      30.12R

$$
MOZ072>076-082>087-097>100-106>115-261700-
...SOUTH CENTRAL AND SOUTHEAST MISSOURI...

CITY           SKY/WX    TMP DP  RH WIND       PRES   REMARKS
CAPE GIRARDEAU PTSUNNY   88  74  63 W3        30.10F HX  96
POPLAR BLUFF   MOSUNNY   88  76  67 CALM      30.10S HX  99
WEST PLAINS    CLOUDY    78  72  81 SE8       30.17S

$$



USA.gov is the U.S. government's official web portal to all federal, state and local government web resources and services.